• In United Kingdom
  • List of Countries
  • For 7 days
  • Water Temperature
  • Satellite Maps
  • Weather Map
  • Weather Widgets
  • user-avatar
    Login

    Hourly Weather Satif

    Today, 17 December, Sunday

    Time Temperature Precipitation Wind Pressure Humidity
    00:00 +3°C° 0 mm 1 mps 672 mmHg 93%
    01:00 +3°C° 0.1 mm 1 mps 672 mmHg 93%
    02:00 +3°C° 0.1 mm 1 mps 672 mmHg 92%
    03:00 +2°C° 0.1 mm 1 mps 672 mmHg 92%
    04:00 +2°C° 0 mm 1 mps 673 mmHg 92%
    05:00 +2°C° 0 mm 1 mps 673 mmHg 91%
    06:00 +2°C° 0 mm 1 mps 673 mmHg 91%
    07:00 +2°C° 0 mm 2 mps 674 mmHg 86%
    08:00 +3°C° 0 mm 2 mps 674 mmHg 82%
    09:00 +4°C° 0 mm 2 mps 675 mmHg 77%
    10:00 +4°C° 0.2 mm 2 mps 675 mmHg 75%
    11:00 +4°C° 0.2 mm 3 mps 675 mmHg 72%
    12:00 +4°C° 0.2 mm 3 mps 675 mmHg 70%
    13:00 +4°C° 0.2 mm 4 mps 675 mmHg 71%
    14:00 +4°C° 0.2 mm 4 mps 676 mmHg 72%
    15:00 +4°C° 0.2 mm 4 mps 676 mmHg 73%
    16:00 +3°C° 0.1 mm 4 mps 676 mmHg 76%
    17:00 +2°C° 0.1 mm 3 mps 676 mmHg 79%
    18:00 +2°C° 0.1 mm 3 mps 676 mmHg 83%
    19:00 +1°C° 0.1 mm 3 mps 677 mmHg 84%
    20:00 +2°C° 0.1 mm 2 mps 677 mmHg 85%
    21:00 +2°C° 0.1 mm 2 mps 677 mmHg 86%
    22:00 +1°C° 0.1 mm 2 mps 677 mmHg 87%
    23:00 +1°C° 0.1 mm 2 mps 677 mmHg 87%

    Tomorrow, 18 December, Monday

    Time Temperature Precipitation Wind Pressure Humidity
    00:00 +1°C° 0.1 mm 2 mps 678 mmHg 88%
    01:00 +1°C° 0.1 mm 2 mps 677 mmHg 88%
    02:00 +1°C° 0.1 mm 2 mps 677 mmHg 88%
    03:00 +1°C° 0.1 mm 2 mps 677 mmHg 89%
    04:00 +1°C° 0.1 mm 2 mps 677 mmHg 89%
    05:00 +1°C° 0.1 mm 2 mps 677 mmHg 89%
    06:00 +1°C° 0.1 mm 2 mps 678 mmHg 89%
    07:00 +2°C° 0.1 mm 2 mps 678 mmHg 85%
    08:00 +2°C° 0.1 mm 2 mps 678 mmHg 82%
    09:00 +3°C° 0.1 mm 2 mps 679 mmHg 78%
    10:00 +3°C° 0.1 mm 3 mps 678 mmHg 76%
    11:00 +3°C° 0.1 mm 3 mps 678 mmHg 73%
    12:00 +4°C° 0.1 mm 3 mps 678 mmHg 71%
    13:00 +4°C° 0.1 mm 3 mps 678 mmHg 69%
    14:00 +4°C° 0.1 mm 3 mps 678 mmHg 68%
    15:00 +4°C° 0.1 mm 3 mps 677 mmHg 66%
    16:00 +5°C° 0 mm 2 mps 677 mmHg 70%
    17:00 +4°C° 0 mm 2 mps 677 mmHg 74%
    18:00 +3°C° 0 mm 2 mps 676 mmHg 78%
    19:00 +3°C° 0 mm 2 mps 676 mmHg 80%
    20:00 +2°C° 0 mm 2 mps 676 mmHg 82%
    21:00 +2°C° 0 mm 2 mps 676 mmHg 84%
    22:00 +1°C° 0 mm 2 mps 676 mmHg 84%
    23:00 +1°C° 0 mm 2 mps 675 mmHg 84%

    Day after tomorrow, 19 December, Tuesday

    Time Temperature Precipitation Wind Pressure Humidity
    00:00 +1°C° 0 mm 2 mps 675 mmHg 85%
    01:00 +1°C° 0 mm 2 mps 674 mmHg 84%
    02:00 +1°C° 0 mm 2 mps 674 mmHg 84%
    03:00 +1°C° 0 mm 2 mps 674 mmHg 84%
    04:00 +1°C° 0.1 mm 2 mps 674 mmHg 82%
    05:00 +1°C° 0.1 mm 2 mps 674 mmHg 80%
    06:00 +2°C° 0.1 mm 2 mps 674 mmHg 78%
    07:00 +3°C° 0.2 mm 2 mps 674 mmHg 74%
    08:00 +3°C° 0.2 mm 2 mps 674 mmHg 69%
    09:00 +4°C° 0.2 mm 2 mps 675 mmHg 65%
    10:00 +4°C° 0.4 mm 2 mps 674 mmHg 64%
    11:00 +4°C° 0.4 mm 3 mps 674 mmHg 64%
    12:00 +4°C° 0.4 mm 3 mps 674 mmHg 63%
    13:00 +4°C° 0.1 mm 3 mps 674 mmHg 66%
    14:00 +4°C° 0.1 mm 4 mps 674 mmHg 68%
    15:00 +4°C° 0.1 mm 4 mps 673 mmHg 70%
    16:00 +4°C° 0.4 mm 3 mps 674 mmHg 74%
    17:00 +3°C° 0.4 mm 3 mps 674 mmHg 78%
    18:00 +3°C° 0.4 mm 3 mps 674 mmHg 83%
    19:00 +3°C° 0.2 mm 3 mps 674 mmHg 85%
    20:00 +3°C° 0.2 mm 3 mps 675 mmHg 87%
    21:00 +2°C° 0.2 mm 3 mps 675 mmHg 89%
    22:00 +2°C° 0.2 mm 3 mps 675 mmHg 90%
    23:00 +2°C° 0.2 mm 3 mps 675 mmHg 91%

    20 December, Wednesday

    Time Temperature Precipitation Wind Pressure Humidity
    00:00 +2°C° 0.2 mm 3 mps 675 mmHg 92%
    01:00 +1°C° 0.2 mm 4 mps 675 mmHg 92%
    02:00 +1°C° 0.2 mm 4 mps 675 mmHg 92%
    03:00 +1°C° 0.2 mm 4 mps 675 mmHg 92%
    04:00 +1°C° 0.1 mm 4 mps 676 mmHg 92%
    05:00 +2°C° 0.1 mm 3 mps 676 mmHg 92%
    06:00 +2°C° 0.1 mm 3 mps 676 mmHg 93%
    07:00 +1°C° 0.1 mm 4 mps 677 mmHg 88%
    08:00 +3°C° 0.1 mm 4 mps 677 mmHg 83%
    09:00 +3°C° 0.1 mm 4 mps 678 mmHg 78%
    10:00 +4°C° 0 mm 4 mps 678 mmHg 73%
    11:00 +5°C° 0 mm 4 mps 678 mmHg 68%
    12:00 +5°C° 0 mm 4 mps 678 mmHg 63%
    13:00 +5°C° 0 mm 4 mps 678 mmHg 64%
    14:00 +5°C° 0 mm 4 mps 677 mmHg 64%
    15:00 +5°C° 0 mm 4 mps 677 mmHg 64%
    16:00 +4°C° 0.1 mm 3 mps 677 mmHg 70%
    17:00 +4°C° 0.1 mm 3 mps 677 mmHg 76%
    18:00 +4°C° 0.1 mm 2 mps 678 mmHg 82%
    19:00 +4°C° 0.1 mm 2 mps 678 mmHg 84%
    20:00 +4°C° 0.1 mm 2 mps 678 mmHg 85%
    21:00 +4°C° 0.1 mm 2 mps 679 mmHg 86%
    22:00 +4°C° 0.1 mm 2 mps 678 mmHg 88%
    23:00 +3°C° 0.1 mm 2 mps 678 mmHg 89%

    21 December, Thursday

    Time Temperature Precipitation Wind Pressure Humidity
    00:00 +3°C° 0.1 mm 2 mps 678 mmHg 90%
    01:00 +3°C° 0.5 mm 2 mps 678 mmHg 90%
    02:00 +3°C° 0.5 mm 2 mps 678 mmHg 89%
    03:00 +3°C° 0.5 mm 2 mps 678 mmHg 89%
    04:00 +3°C° 0.3 mm 2 mps 678 mmHg 89%
    05:00 +3°C° 0.3 mm 2 mps 678 mmHg 89%
    06:00 +3°C° 0.3 mm 2 mps 679 mmHg 89%
    07:00 +4°C° 0.2 mm 2 mps 679 mmHg 87%
    08:00 +3°C° 0.2 mm 3 mps 680 mmHg 85%
    09:00 +4°C° 0.2 mm 3 mps 680 mmHg 83%
    10:00 +4°C° 0.1 mm 4 mps 680 mmHg 79%
    11:00 +5°C° 0.1 mm 4 mps 680 mmHg 75%
    12:00 +5°C° 0.1 mm 4 mps 681 mmHg 71%
    13:00 +5°C° 0.1 mm 4 mps 681 mmHg 70%
    14:00 +5°C° 0.1 mm 4 mps 680 mmHg 70%
    15:00 +4°C° 0.1 mm 4 mps 680 mmHg 69%
    16:00 +4°C° 0 mm 4 mps 681 mmHg 74%
    17:00 +3°C° 0 mm 3 mps 681 mmHg 79%
    18:00 +3°C° 0 mm 2 mps 681 mmHg 84%
    19:00 +2°C° 0 mm 2 mps 681 mmHg 86%
    20:00 +2°C° 0 mm 2 mps 681 mmHg 88%
    21:00 +1°C° 0 mm 2 mps 681 mmHg 91%
    22:00 +1°C° 0 mm 2 mps 681 mmHg 91%
    23:00 +2°C° 0 mm 1 mps 681 mmHg 92%

    22 December, Friday

    Time Temperature Precipitation Wind Pressure Humidity
    00:00 +1°C° 0 mm 1 mps 681 mmHg 93%
    01:00 +1°C° 0 mm 1 mps 680 mmHg 92%
    02:00 +1°C° 0 mm 1 mps 680 mmHg 92%
    03:00 +1°C° 0 mm 1 mps 680 mmHg 92%
    04:00 0°C° 0 mm 1 mps 680 mmHg 92%
    05:00 0°C° 0 mm 1 mps 680 mmHg 91%
    06:00 0°C° 0 mm 1 mps 680 mmHg 91%
    07:00 +1°C° 0 mm 1 mps 680 mmHg 84%
    08:00 +3°C° 0 mm 1 mps 680 mmHg 78%
    09:00 +4°C° 0 mm 1 mps 681 mmHg 71%
    10:00 +4°C° 0 mm 2 mps 681 mmHg 66%
    11:00 +5°C° 0 mm 2 mps 680 mmHg 61%
    12:00 +7°C° 0 mm 2 mps 680 mmHg 56%
    13:00 +7°C° 0 mm 3 mps 680 mmHg 57%
    14:00 +7°C° 0 mm 3 mps 680 mmHg 58%
    15:00 +7°C° 0 mm 3 mps 679 mmHg 60%
    16:00 +5°C° 0 mm 3 mps 679 mmHg 67%
    17:00 +5°C° 0 mm 2 mps 679 mmHg 75%
    18:00 +3°C° 0 mm 2 mps 679 mmHg 83%
    19:00 +3°C° 0 mm 2 mps 679 mmHg 86%
    20:00 +3°C° 0 mm 2 mps 679 mmHg 88%
    21:00 +3°C° 0 mm 1 mps 679 mmHg 91%
    22:00 +3°C° 0 mm 1 mps 678 mmHg 92%
    23:00 +2°C° 0 mm 2 mps 678 mmHg 92%
    Show more